English version (google)  Retour à l'accueil Ecrire à l'auteur du site Runraid : Michel Jourdan


 Visitez La Boutique 



Les prochaines courses


Les derniers résultats

cliquez pour visualiser la page complète relatant la chronologie des éruptions du Piton de la Fournaise
éruptions Piton de la Fournaise


Ile de La Réunion

 Diagonale des Fous 

Ecrire au créateur du site : Michel Jourdan
Contact


2021-05-22 - Torgon Trail 20km

Pour consulter le palmarès d'un coureur, un clic sur son nom !

Vous avez des remarques, corrections, ... sur ces résultats , un clic sur --> pour me transmettre toute information concernant les classements


Torgon Trail 20km - 2021 : classement des 219 finishers
Place Nom Temps Cat. Club Sexe Clt/cat.
Place Nom Temps Cat. Club Sexe Clt/cat.
1 ROBIN Antoine 02:03:22 SEM M 1003
2 NANCOZ Michael 02:06:46 SEM M 1501
3 LONGET Damien 02:08:09 SEM M 1012
4 GAILLE Laurent 02:12:45 V1M M 1024
5 ZOGG Dimitri 02:13:10 SEM M 1047
6 GRIN David 02:14:09 V1M M 1016
7 REY MILLET Quentin 02:14:10 SEM M 1017
8 Lafaye Celine 02:14:32 V1F F 1ere F 1005
9 PETRUCCI Fabien 02:14:41 SEM M 1025
10 PIRES Mickael 02:14:55 SEM M 1299
11 VOLAND Mathis 02:15:19 SEM M 1019
12 DERIVAZ Jerome 02:16:22 SEM M 1006
13 ZANCHI Thierry 02:16:37 SEM M 1009
14 BREUILLE Raphael 02:17:32 SEM M 1031
15 Mathys Maude 02:17:40 SEF F 2 F 1500
16 CLERC Kevin 02:18:43 SEM M 1008
17 RISSE Hugo 02:19:52 SEM M 1040
18 LLOBET ROSELL Arnau 02:20:03 SEM M 1020
19 HADDOU Romaric 02:20:20 SEM M 1013
20 BERGER Nicolas 02:21:04 SEM M 1018
21 GENTY Damien 02:21:38 SEM M 1010
22 RASTI Fabrice 02:23:19 SEM M 1300
23 DEZARNAULDS Julien 02:23:21 V1M M 1021
24 TORRENTe Cetin 02:24:19 SEM M 1027
25 UNGAR Christophe 02:26:16 V1M M 1070
26 OGUEY Frederic 02:26:21 SEM M 1054
27 JORNOD Marine 02:26:47 SEF F 3 F 1023
28 BOSCO Jean Laurent 02:27:55 V1M M 1015
29 MARIAUX Mathieu 02:28:12 SEM M 1036
30 CHATELANAT John 02:29:18 V1M M 1011
31 HURRELL Alex 02:29:49 SEM M 1032
31 CABOUAT David 02:29:49 SEM M 1037
33 SCHERRER Thibaut 02:30:16 V1M M 1033
34 MARTIN Adrien 02:31:17 SEM M 1055
35 MORIER John 02:33:35 SEM M 1083
36 CHABBEY Isaline 02:33:57 SEF F 4 F 1046
37 MORISOD Jean Luc 02:34:10 SEM M 1503
38 BERSET Frederic 02:34:28 V1M M 1086
39 DELACReTAZ Christian 02:34:43 V1M M 1053
40 HALLE Martin 02:35:46 V1M M 1049
41 ZERMATTEN David 02:37:41 SEM M 1110
42 VITTOZ Romain 02:38:00 SEM M 1014
43 NEYROUD Enguerrand 02:38:05 V1M M 1034
44 BRAND Andreas 02:38:13 V2M M 1035
45 FUX Philipp 02:38:24 SEM M 1076
46 FROSSARD David 02:38:25 SEM M 1078
47 PIN Antoine 02:38:56 SEM M 1072
48 RAMA Adrien 02:39:12 SEM M 1074
49 PASQUIER Joel 02:39:37 V2M M 1059
50 ANTILLE Kent 02:40:00 V1M M 1068
51 DRIDI Anthony 02:40:06 SEM M 1075
52 ALLAMAND Nicolas 02:40:19 SEM M 1067
53 VEILLET Julien 02:41:09 SEM M 1065
53 DESSARZIN Marlene 02:41:09 V1F F 5 F 1146
55 CANOVA David 02:42:51 SEM M 1060
56 FUX Hans Peter 02:43:39 V3M M 1041
57 PEYROLLAZ Thibaud 02:44:00 SEM M 1260
58 MARCLAY Emily 02:44:18 SEF F 6 F 1093
59 MARIAUX David 02:44:58 SEM M 1117
60 MOHAMADI Mathieu 02:45:06 V1M M 1212
61 EKMAN Alexandre 02:45:35 SEM M 1022
62 VALITON Christian 02:46:04 V3M M 1202
63 LEHMANN Lara 02:46:58 SEF F 7 F 1134
64 LEFEBVRE Francois 02:47:11 SEM M 1057
65 JEAN Michele 02:47:48 V1F F 8 F 1051
66 WULLSCHLEGER Patrick 02:48:05 V2M M 1108
67 BOURNOUD Alain 02:48:19 V1M M 1100
68 SERULLA Marc 02:48:22 SEM M 1105
69 AMACKER Yves 02:49:07 V2M M 1029
70 LUGON Sebastien 02:49:43 V1M M 1091
71 DUFAUX Tatiana 02:49:53 SEF F 9 F 1094
72 ROUX Valentin 02:50:23 SEM M 1071
72 ROCHAT Eve 02:50:23 V1F F 10 F 1132
74 LOPRETI Nicolas 02:50:57 SEM M 1096
75 FONTAINE Julien 02:51:02 SEM M 1048
76 DENNLER Guillaume 02:51:38 V1M M 1056
77 DUPONT Frederic 02:52:36 V1M M 1109
78 EVENO Charley 02:52:37 SEM M 1082
79 LATHAM Martin 02:53:14 SEM M 1177
80 GLIGORE Catalin 02:53:57 V1M M 1050
81 GENETTI Christelle 02:54:30 SEF F 1089
82 MAURY Gabrielle 02:54:38 SEF F 1172
83 METTAN Steve 02:54:42 V1M M 1090
84 FERRO Coraline 02:54:53 SEF F 1079
85 TSCHOPP Jean Louis 02:54:54 SEM M 1081
86 TROMBERT emilie 02:55:19 SEF F 1120
87 BENTELE Ralph 02:55:20 V2M M 1126
88 LUGEON Jean Daniel 02:56:09 V2M M 1112
89 FRUNEAU Pierre 02:56:26 SEM M 1098
90 HENRIQUES Leonor 02:56:37 V2F F 1062
91 BULLIARD Cyril 02:56:41 SEM M 1052
92 CHAMBAT Sebastien 02:57:18 SEM M 1104
93 LAPOINTE Maude 02:57:34 V1F F 1252
94 PERDRIEU Christelle 02:57:36 SEF F 1092
95 BROUX Alexandre 02:57:58 V1M M 1149
96 BOSSAILLER Marc 02:58:42 SEM M 1170
97 BERTOLASO Daniel 02:59:18 V1M M 1247
98 PIDOUX Mathurin 02:59:40 SEM M 1064
99 DELACReTAZ Olivier 02:59:51 V2M M 1097
100 MOIX Blaise 03:00:23 SEM M 1042
101 FRACHEBOUD Maxime 03:00:48 SEM M 1180
102 SAVARY Myriam 03:01:12 V1F F 1102
103 DUPUIS Aroun 03:01:13 SEM M 1229
104 SOTTAS Alexandra 03:01:36 V1F F 1099
105 RICHERT Florian 03:02:30 SEM M 1201
106 GOUJON Remy 03:02:40 SEM M 1196
107 TURNER Shane 03:03:21 SEM M 1301
108 FAVRE Ludovic 03:03:55 SEM M 1069
109 BROWN Mark 03:04:45 V3M M 1158
110 PERROUD Cosette 03:05:13 SEF F 1234
111 NEY Patricia 03:05:18 V1F F 1194
112 BERTHOUD Christian 03:05:25 V2M M 1127
113 SALOMON David 03:05:29 SEM M 1085
114 HORVATH Celine 03:05:37 SEF F 1107
115 CAPPI Gaelle 03:06:02 SEF F 1182
116 HERZI Taf 03:06:03 V2M M 1084
117 MUNTWYLER Rebecca 03:06:07 SEF F 1162
118 TORNAY Raphael 03:06:45 V1M M 1165
119 TRISCONI Lucie 03:07:39 SEF F 1222
120 BAILLIFARD David 03:07:48 V1M M 1159
121 HAUETER Celine 03:08:07 SEF F 1144
122 FUX Marion 03:08:10 SEF F 1061
123 ROTH Cindy 03:08:14 V1F F 1141
124 ZELLER Michael 03:09:03 V1M M 1063
125 PFLUGER Annelise 03:09:26 SEF F 1298
126 DE KALBERMATTEN Romaine 03:10:05 SEF F 1161
127 ODERMATT Nadine 03:10:14 V1F F 1137
128 MORISOD Stephane 03:10:41 SEM M 1184
129 PUGIN Alexandra 03:10:46 SEF F 1186
130 MAURON Cyrille 03:10:49 SEM M 1185
131 SALAMIN Michel 03:11:28 V2M M 1191
131 SALAMIN Pauline 03:11:28 SEF F 1192
133 BENEY Isabelle 03:12:56 V1F F 1150
134 ADOR Elise 03:13:08 SEF F 1128
135 FReMONT Josselin 03:13:14 V1M M 1151
136 MORY Nicolas 03:13:40 SEM M 1026
137 COUTAZ Fabrice 03:14:32 V1M M 1135
138 VESIN Paul 03:14:57 SEM M 1030
139 GERBER Daniel 03:15:28 V2M M 1130
140 LEEMANS Els 03:16:18 SEF F 1101
141 GRAU Sarah 03:17:27 SEF F 1283
142 BROWN Katharine 03:17:53 V2F F 1122
143 PITTET Amy 03:18:51 SEM M 1173
144 PETRI Julius 03:18:53 SEM M 1239
145 DE GENNARO Chloe 03:18:57 SEF F 1156
146 GORDON Marc 03:19:02 V2M M 1195
147 WILLIAMS Scott 03:19:03 V1M M 1189
148 VERHAEGEN Marco 03:19:19 V3M M 1124
149 IVETIC Tamara 03:20:33 SEF F 1116
150 OOSTERKAMP Stephanie 03:21:43 SEF F 1263
151 PEYROLLAZ Aurelie 03:22:05 SEF F 1273
152 RODUIT Bastien 03:24:45 V1M M 1261
153 BENDER Raphael 03:24:46 V1M M 1259
154 NICOLIER Jerome 03:25:08 V1M M 1297
155 SEYDOUX Coralie 03:25:28 SEF F 1205
156 BRIDOUX ABBET Delphine 03:25:30 V1F F 1211
157 KRAEHENBUEHL Herve 03:25:34 V1M M 1206
158 SCHoNENBERGER Marc 03:25:39 SEM M 1264
159 PERNET Melissa 03:26:09 SEF F 1216
160 BURNET Claude 03:27:35 V1M M 1167
161 RISLER Philippe 03:27:39 V2M M 1289
162 Bouquet Madame Christiane 03:29:19 V2F F 1499
163 BOLLIGER Dany 03:30:41 SEM M 1125
164 ANTONIETTI Annick 03:31:19 V1F F 1164
165 ARLETTAZ Sophie 03:32:59 SEF F 1291
166 FERREOL Melodie 03:33:10 SEF F 1190
167 PERRUCHOUD Vanessa 03:35:33 SEF F 1175
168 DUPONT Sarah 03:36:22 V2F F 1240
169 LEIDI Mara 03:36:35 SEF F 1136
170 ROSSI Malika 03:37:22 V1F F 1233
171 BOUVERY Paule 03:37:26 V3F F 1176
172 BERGER Alexandra 03:38:52 V1F F 1174
173 ZAPATA SCHMIDT Monica 03:39:50 V1F F 1181
174 LAURENT Christophe 03:41:18 V2M M 1129
175 ZERMATTEN Nicolas 03:41:36 SEM M 1143
176 CReA CINA Sandra 03:41:42 SEF F 1282
177 TONOSSI Susanne 03:42:42 V2F F 1155
178 BRAUN Anthony 03:43:58 SEM M 1157
179 DEMISSY CAZEILLES Olivier 03:44:00 V1M M 1199
180 ROUVIERE Cecile 03:46:15 SEF F 1258
181 GRUNDER Sarah 03:46:36 SEF F 1295
182 GRAND Gregory 03:46:57 SEM M 1243
183 IACHINI Angelique 03:49:59 SEF F 1249
184 LOZANO Nicolas 03:52:22 SEM M 1188
185 MOSER Heinz 03:52:39 V1M M 1214
186 BUSCHINI Jean Marc 03:53:42 V2M M 1223
186 DELSETH David 03:53:42 SEM M 1217
186 BUSCHINI Claudia 03:53:42 V2F F 1224
189 DOUGOUD Michael 03:53:47 SEM M 1278
190 CLERC Richard 03:54:53 V1M M 1232
191 IMREI Ivana 03:55:00 SEF F 1221
192 CUENAT WENGER Noemie 03:56:34 V1F F 1166
193 EGGS Linda 03:57:05 SEF F 1231
194 FASSEAUX Shane 03:57:19 V1M M 1293
195 FERRERO Adrian 03:59:52 V1M M 1294
196 POCHON Juliane 04:01:34 V1F F 1163
197 SERVOZ Sandrine 04:06:38 V2F F 1213
198 JENTSCH Stephane 04:08:42 V2M M 1267
199 LONGUEIRA Juan 04:09:18 V2M M 1245
200 LeVeQUE Jean Francois 04:11:15 V2M M 1193
201 MUSCILLO Dominique 04:12:30 V2F F 1280
202 ALLESINA Stephanie 04:16:36 SEF F 1198
203 VINZIA Alain 04:16:42 V2M M 1171
204 LOCHER Claudia 04:17:25 V1F F 1272
205 GAVIN Catherine 04:18:28 V2F F 1268
206 PUJOL Silvia 04:18:42 V2F F 1237
207 COUTURIER Alain 04:20:13 V2M M 1204
208 DACOSTA Carlos 04:21:00 V2M M 1244
209 SeCHAUD Isabelle 04:22:26 V2F F 1265
210 FRIAUT Sandrine 04:22:29 V1F F 1241
211 IACHINI Frederic 04:24:59 SEM M 1138
212 Detraz Melanie 04:27:53 SEF F 1257
213 BOSCHUNG Samuel 04:29:35 V1M M 1275
214 BURNET Cindy 04:34:44 V1F F 1277
214 ROCH Isabelle 04:34:44 V1F F 1279
216 MARTIN Henri 04:52:12 V1M M 1269
217 STUUT Monique 04:55:14 V2F F 1274
218 1255 N.N. 04:58:14 1255
219 TAGLIANI Raphael 05:07:19 V1M M 1266


ReferencementCe site est listé dans la catégorie Sport : Sports extrêmes Dictionnaire
| Accueil | La Réunion  Vue du ciel | Météo | Cyclones | Volcan | Cirques de Mafate , Cilaos , Salazie | Photos Randonnées | Randonnées Réunion: Randos Espiègle , Courses montagne | Diagonale des Fous |  Marathon des Sables | Voyages Les stats du site | Fonds écran | Plan du site | Blog de runraid | Galerie photos Sport Réunion |